Flag for Mexico Weather past 2 weeks in Mexicali, Baja California, Mexico

Now
73 °F

Thundershowers. Mostly cloudy.


Feels Like: 75 °F
Forecast: 77 / 98 °F
Wind: 15 mph from Southeast

Location: Imperial County Airport

Current Time: Aug 21, 2014 at 3:20:01 PM

Latest Report: Aug 21, 2014 at 2:53 PM


Visibility: 6 mi

Pressure: 29.87 "Hg

Humidity: 74%

Dew point: 64 °F

Location of MexicaliLocation

Historic Weather in Mexicali — Graph

°F

Mexicali temperature yesterday

Maximum temperature yesterday: 100 °F (at 2:53 PM)
Minimum temperature yesterday: 77 °F (at 6:53 AM)
Average temperature yesterday: 89 °F

Past Weeks' High & Low Weather Summary

 TemperatureHumidityPressure
High111 °F (Aug 17, 3:53 PM)82% (Aug 19, 5:53 AM)29.94 "Hg (Aug 19, 5:53 AM)
Low70 °F (Aug 9, 6:53 AM)3% (Aug 6, 3:53 PM)29.61 "Hg (Aug 19, 5:53 PM)
Average92 °F38%29.79 "Hg
* Reported Aug 6 2:53 PM — Aug 21 2:02 PM, Mexicali, Weather by CustomWeather, © 2014

Note: Actual official high and low records may vary slightly from our data, if they occured in-between our weather recording intervals... More about our weather records

Advertising

Mexicali weather history for previous 24 hours

 ConditionsComfort  
Time TempWeatherWind HumidityBarometerVisibility
2:02 PM
Aug 21
74 °FStrong thunderstorms. Broken clouds.15 mph74%29.94 "Hg0 mi
1:53 PM75 °FStrong thunderstorms. Overcast.35 mph69%29.84 "Hg1 mi
12:53 PM95 °FScattered clouds.5 mph35%29.82 "Hg10 mi
11:53 AM96 °FSunny.9 mph30%29.83 "Hg10 mi
10:53 AM96 °FSunny.8 mph23%29.85 "HgN/A
9:53 AM93 °FSunny.6 mph26%29.85 "HgN/A
8:53 AM89 °FSunny.N/A32%29.84 "Hg10 mi
7:53 AM81 °FSunny.3 mph53%29.83 "Hg10 mi
6:53 AM82 °FClear.No wind37%29.81 "Hg10 mi
5:53 AM81 °FClear.3 mph37%29.79 "Hg10 mi
4:53 AM80 °FClear.No wind39%29.78 "Hg10 mi
3:53 AM82 °FClear.3 mph35%29.78 "Hg10 mi
2:53 AM83 °FClear.No wind36%29.78 "Hg10 mi
1:53 AM84 °FClear.3 mph35%29.78 "Hg10 mi
12:53 AM84 °FClear.7 mph36%29.78 "Hg10 mi
11:53 PM
Aug 20
86 °FClear.14 mph33%29.77 "Hg10 mi
10:53 PM86 °FClear.10 mph35%29.77 "Hg10 mi
9:53 PM88 °FClear.15 mph35%29.76 "Hg10 mi
8:53 PM89 °FClear.12 mph32%29.74 "Hg10 mi
7:53 PM90 °FSunny.12 mph31%29.72 "Hg10 mi
6:53 PM97 °FSunny.6 mph19%29.70 "Hg10 mi
5:53 PM99 °FSunny.No wind17%29.71 "Hg10 mi
4:53 PM99 °FSunny.3 mph17%29.72 "Hg10 mi
3:53 PM99 °FSunny.6 mph16%29.73 "Hg10 mi
Weather by CustomWeather, © 2014

See weather overviewHow to use our weather pages